Terminal Aerodrome Forecast
Issued by NWS Austin/San Antonio, TX

Home | Current Version | Previous Version | Text Only | Print | Product List | Glossary On
Versions: 1 2 3 4 5 6 7 8 9 10 11 12 13 14 15 16 17 18 19 20 21 22 23 24 25 26 27 28 29 30 31 32 33
000
FTUS44 KEWX 161136
TAFSAT
TAF
KSAT 161136Z 1612/1718 00000KT P6SM FEW015 BKN040 OVC120
     FM162000 01005KT P6SM BKN035
     FM170100 02005KT P6SM OVC025
     FM170900 03007KT 6SM BR VCSH OVC010=

USA.gov is the U.S. government's official web portal to all federal, state and local government web resources and services.